Regional Weather Roundup
Issued by NWS Sterling, VA

Home | Current Version | Previous Version | Text Only | Print | Product List | Glossary Off
Versions: 1 2 3 4 5 6 7 8 9 10 11 12 13 14 15 16 17 18 19 20 21 22 23 24 25 26 27

000
ASUS41 KLWX 230610
RWRLWX

REGIONAL WEATHER ROUNDUP
NATIONAL WEATHER SERVICE BALTIMORE MD/WASHINGTON DC
200 AM EDT TUE AUG 23 2016

Note: "FAIR" indicates few or no clouds below 12,000 feet
with no significant weather and/or obstructions to visibility.
 TC=TEMPERATURE CELSIUS

 * =Non NWS site. Station does not report precipitation (e.g. rain,
    snow, etc.), thunder, or fog.

DCZ001-MDZ009-015-VAZ040>042-051-053>054-230700-
WASHINGTON METRO

CITY           SKY/WX    TMP DP  RH WIND       PRES   REMARKS
WASHINGTON NAT CLEAR     72  63  73 NE7       30.24S
DULLES         CLEAR     65  60  84 N3        30.25R
ANDREWS AFB    CLEAR     66  59  77 NE5       30.24R
FT BELVOIR     CLEAR     62  61  95 CALM      30.24R
QUANTICO       CLEAR     67  63  87 NW8       30.24R
COLLEGE PARK*  CLEAR     61  59  94 CALM      30.24S
LEESBURG*      CLEAR     63  63 100 CALM      30.27R
MANASSAS*      CLEAR     63  61  94 CALM      30.25R
GAITHERSBURG*  PTCLDY    63  54  72 CALM      30.29S

$$

MDZ006>007-011-014-230700-
BALTIMORE METRO

CITY           SKY/WX    TMP DP  RH WIND       PRES   REMARKS
BWI AIRPORT    PTCLDY    63  59  87 CALM      30.24S
MD SCIENCE CTR   N/A     72  54  53 MISG      30.24S
MARTIN STATE   PTCLDY    64  63  94 CALM      30.26R
ANNAPOLIS      CLEAR     73  58  59 NE5       30.23R
FORT MEADE*    CLEAR     59  59 100 CALM      30.27R

$$

MDZ012-015-019>023-230700-
MARYLAND EASTERN SHORE

CITY           SKY/WX    TMP DP  RH WIND       PRES   REMARKS
OCEAN CITY     CLEAR     71  57  61 NE9       30.23R
SALISBURY      CLEAR     64  60  87 CALM      30.23R
BAY BRIDGE AP* CLEAR     70  57  64 E6        30.24R
CAMBRIDGE*     CLEAR     64  57  77 NE3       30.23S
EASTON*        CLEAR     66  62  85 E5        30.27S

$$

MDZ017>025-230700-
SOUTHERN MARYLAND

CITY           SKY/WX    TMP DP  RH WIND       PRES   REMARKS
PATUXENT RIVER CLEAR     71  57  61 E8        30.23R
ST INIGOES     CLEAR     68  62  81 NE6       30.22R
LEONARDTOWN*   CLEAR     64  63  94 CALM      30.25R

$$

MDZ003>005-230700-
NORTH CENTRAL MARYLAND

CITY           SKY/WX    TMP DP  RH WIND       PRES   REMARKS
FREDERICK*     PTCLDY    59  59 100 CALM      30.28S FOG
HAGERSTOWN APT CLEAR     63  54  72 CALM      30.26R

$$

MDZ501>502-230700-
WESTERN MARYLAND

CITY           SKY/WX    TMP DP  RH WIND       PRES   REMARKS
OAKLAND*       CLEAR     59  54  82 CALM      30.33S
CUMBERLAND*    CLEAR     61  61 100 N3        30.32R

$$

VAZ025>031-230700-
SHENANDOAH VALLEY

CITY           SKY/WX    TMP DP  RH WIND       PRES   REMARKS
WINCHESTER*    CLEAR     61  55  82 CALM      30.26S
FRONT ROYAL*   FAIR      61  59  94 CALM      30.26S
LURAY*         CLOUDY   N/A N/A N/A CALM      30.27S
NEW MARKET*    CLOUDY   N/A N/A N/A CALM      30.27S
STAUNTON*      MOCLDY    63  57  81 N3        30.29S
WAYNESBORO*    MOCLDY    63  60  90 CALM      30.28S

$$

WVZ021-048>050-054>055-230700-
EASTERN WEST VIRGINIA PANHANDLE

CITY           SKY/WX    TMP DP  RH WIND       PRES   REMARKS
MARTINSBURG    CLEAR     58  56  93 CALM      30.26R
PETERSBURG*    CLEAR     58  56  95 CALM      30.29S

$$

VAZ036>039-050-230700-
CENTRAL FOOTHILLS

CITY           SKY/WX    TMP DP  RH WIND       PRES   REMARKS
CHARLOTTESVILL CLOUDY    68  62  81 CALM      30.25R
CULPEPER*      CLOUDY    66  64  94 NE3       30.26R
ORANGE*          N/A     68  68 100 CALM      30.26S
GORDONSVILLE*  NOT AVBL
WARRENTON*     MOCLDY    61  57  87 CALM      30.24S

$$

VAZ055>057-230700-
NORTH AND CENTRAL PIEDMONT

CITY           SKY/WX    TMP DP  RH WIND       PRES   REMARKS
FREDERICKSBRG* MOCLDY    65  65 100 CALM      30.22S
STAFFORD*      CLEAR     62  61  97 CALM      30.28R

$$

NCZ024-NYZ072-PAZ021-071-VAZ022-071-230700-
OTHER REGIONAL OBSERVATIONS

CITY           SKY/WX    TMP DP  RH WIND       PRES   REMARKS
NEW YORK CITY  CLEAR     65  48  54 VRB3      30.26R
PHILADELPHIA   CLEAR     66  51  58 NE3       30.25R
PITTSBURGH     CLEAR     63  55  75 CALM      30.27R
ROANOKE        CLEAR     63  57  81 CALM      30.28S
RICHMOND       PTCLDY    66  60  81 CALM      30.22R
RALEIGH        MOCLDY    69  62  78 NE3       30.21S

$$

ANZ530>537-230700-
MARINE OBSERVATIONS

STATION/POSITION TIME  TEMP    WIND        PRES
                       AIR SEA DIR/SP/G
                 (UTC) (F)     (DEG/KT/KT) (MB)
THOMAS PT LIGHT  0600   74 82   80/ 11/ 13 1025.1R
BALT KEY BRIDGE  0548           30/  6/  7 1023.9R
COVE POINT       0548           90/ 11/ 15 1024.2R
LEWISETTA        0548           80/  9/ 11 1022.7R
SOLOMONS ISLAND  0542           40/  8/ 12   N/A
PINEY POINT      0548           70/  6/  7   N/A

$$





USA.gov is the U.S. government's official web portal to all federal, state and local government web resources and services.